This is the latest recevied weather packets stored in our database for station/object IZ1RFL-3. If no packets are shown the sender has not sent any weather packets the latest 1 day(s).
| Time | Temp. | Humidity | Pressure | Rain* | Wind** | Luminosity | Snow |
|---|---|---|---|---|---|---|---|
| 1778038266 | 12.78° C | 87% | 1010.6 hPa | - | 0 m/s | - | - |
| 1778037366 | 12.78° C | 86% | 1010.6 hPa | - | 0 m/s | - | - |
| 1778036466 | 12.78° C | 87% | 1010.6 hPa | - | 0 m/s | - | - |
| 1778035566 | 12.78° C | 87% | 1011 hPa | - | 0 m/s | - | - |
| 1778034666 | 12.78° C | 87% | 1011 hPa | - | 0 m/s | - | - |
| 1778033766 | 12.78° C | 88% | 1011.3 hPa | - | 0 m/s | - | - |
| 1778032866 | 12.22° C | 89% | 1011.3 hPa | - | 0 m/s | - | - |
| 1778031966 | 12.22° C | 89% | 1011.1 hPa | - | 0 m/s | - | - |
| 1778031066 | 12.78° C | 87% | 1011.1 hPa | - | 0 m/s | - | - |
| 1778030166 | 12.78° C | 87% | 1011.5 hPa | - | 0 m/s | - | - |
| 1778029266 | 12.78° C | 86% | 1011.8 hPa | - | 0 m/s | - | - |
| 1778028366 | 12.78° C | 86% | 1012 hPa | - | 0 m/s | - | - |
| 1778027466 | 13.33° C | 85% | 1012.3 hPa | - | 0 m/s | - | - |
| 1778026566 | 13.33° C | 85% | 1012.5 hPa | - | 0 m/s | - | - |
| 1778025666 | 13.33° C | 84% | 1012.9 hPa | - | 0 m/s | - | - |
| 1778024766 | 13.33° C | 84% | 1013.1 hPa | - | 0 m/s | - | - |
| 1778023866 | 13.33° C | 84% | 1013.1 hPa | - | 0 m/s | - | - |
| 1778022966 | 13.33° C | 84% | 1012.9 hPa | - | 0 m/s | - | - |
| 1778022066 | 13.33° C | 84% | 1012.8 hPa | - | 0 m/s | - | - |
| 1778021166 | 13.33° C | 82% | 1013.1 hPa | - | 0 m/s | - | - |
| 1778020266 | 13.33° C | 81% | 1013.3 hPa | - | 0 m/s | - | - |
| 1778019366 | 13.33° C | 81% | 1013.4 hPa | - | 0 m/s | - | - |
| 1778018466 | 13.89° C | 80% | 1013.3 hPa | - | 0 m/s | - | - |
| 1778017566 | 13.33° C | 81% | 1013.5 hPa | - | 0 m/s | - | - |
| 1778016666 | 13.33° C | 81% | 1013.8 hPa | - | 0 m/s | - | - |
* Rain since midnight (hover to see other rain measurements)
** Current wind speed in m/s (hover to see current wind gust speed)